TimeCDT,TemperatureF,Dew PointF,Humidity,Sea Level PressureIn,VisibilityMPH,Wind Direction,Wind SpeedMPH,Gust SpeedMPH,PrecipitationIn,Events,Conditions,WindDirDegrees,DateUTC
12:35 AM,-9999,-9999,N/A,30.07,8.0,Calm,Calm,-,N/A,,Overcast,0,2012-10-10 05:35:00
12:55 AM,-9999,-9999,N/A,30.09,8.0,North,5.8,-,N/A,,Overcast,350,2012-10-10 05:55:00
1:15 AM,-9999,-9999,N/A,30.08,10.0,North,6.9,-,N/A,,Overcast,360,2012-10-10 06:15:00
1:36 AM,-9999,-9999,N/A,30.10,10.0,North,6.9,-,N/A,,Mostly Cloudy,350,2012-10-10 06:36:00
1:55 AM,-9999,-9999,N/A,30.10,10.0,North,10.4,-,N/A,,Mostly Cloudy,360,2012-10-10 06:55:00
2:15 AM,-9999,-9999,N/A,30.11,10.0,North,9.2,-,N/A,,Scattered Clouds,360,2012-10-10 07:15:00
2:35 AM,-9999,-9999,N/A,30.12,10.0,NNE,12.7,17.3,N/A,,Clear,20,2012-10-10 07:35:00
2:55 AM,-9999,-9999,N/A,30.14,10.0,North,9.2,-,N/A,,Clear,10,2012-10-10 07:55:00
3:15 AM,-9999,-9999,N/A,30.14,10.0,NNE,11.5,16.1,N/A,,Clear,20,2012-10-10 08:15:00
3:35 AM,-9999,-9999,N/A,30.14,10.0,NNE,8.1,-,N/A,,Clear,30,2012-10-10 08:35:00
3:55 AM,-9999,-9999,N/A,30.14,10.0,NNE,10.4,-,N/A,,Clear,30,2012-10-10 08:55:00
4:15 AM,-9999,-9999,N/A,30.15,10.0,NE,9.2,-,N/A,,Clear,40,2012-10-10 09:15:00
4:35 AM,-9999,-9999,N/A,30.16,10.0,NNE,6.9,-,N/A,,Clear,30,2012-10-10 09:35:00
4:55 AM,-9999,-9999,N/A,30.16,10.0,NE,9.2,-,N/A,,Clear,40,2012-10-10 09:55:00
5:15 AM,-9999,-9999,N/A,30.16,10.0,NE,6.9,-,N/A,,Clear,40,2012-10-10 10:15:00
5:35 AM,-9999,-9999,N/A,30.17,10.0,NE,6.9,-,N/A,,Clear,40,2012-10-10 10:35:00
5:55 AM,-9999,-9999,N/A,30.18,10.0,NE,3.5,-,N/A,,Clear,40,2012-10-10 10:55:00
6:15 AM,-9999,-9999,N/A,30.20,10.0,Calm,Calm,-,N/A,,Clear,0,2012-10-10 11:15:00
6:35 AM,-9999,-9999,N/A,30.20,10.0,Calm,Calm,-,N/A,,Clear,0,2012-10-10 11:35:00
7:35 AM,-9999,-9999,N/A,30.22,10.0,Calm,Calm,-,N/A,,Clear,0,2012-10-10 12:35:00
7:55 AM,-9999,-9999,N/A,30.23,2.5,Calm,Calm,-,N/A,,Clear,0,2012-10-10 12:55:00
8:36 AM,-9999,-9999,N/A,30.25,10.0,East,4.6,-,N/A,,Clear,100,2012-10-10 13:36:00
8:55 AM,-9999,-9999,N/A,30.26,10.0,East,5.8,-,N/A,,Clear,90,2012-10-10 13:55:00
9:15 AM,-9999,-9999,N/A,30.26,10.0,East,4.6,-,N/A,,Clear,90,2012-10-10 14:15:00
9:36 AM,-9999,-9999,N/A,30.26,10.0,East,6.9,-,N/A,,Clear,90,2012-10-10 14:36:00
9:55 AM,-9999,-9999,N/A,30.26,10.0,East,11.5,-,N/A,,Clear,80,2012-10-10 14:55:00
10:15 AM,-9999,-9999,N/A,30.27,10.0,East,10.4,-,N/A,,Clear,80,2012-10-10 15:15:00
10:55 AM,-9999,-9999,N/A,30.28,10.0,ENE,9.2,-,N/A,,Clear,70,2012-10-10 15:55:00
11:15 AM,-9999,-9999,N/A,30.28,10.0,NNE,9.2,-,N/A,,Clear,20,2012-10-10 16:15:00
11:35 AM,-9999,-9999,N/A,30.28,10.0,NE,11.5,-,N/A,,Clear,40,2012-10-10 16:35:00
11:55 AM,-9999,-9999,N/A,30.27,10.0,NE,6.9,-,N/A,,Clear,50,2012-10-10 16:55:00
12:15 PM,-9999,-9999,N/A,-9999,-9999.0,North,-9999.0,-,N/A,,Unknown,0,2012-10-10 17:15:00
12:36 PM,-9999,-9999,N/A,30.26,10.0,NNE,10.4,-,N/A,,Clear,20,2012-10-10 17:36:00
12:55 PM,-9999,-9999,N/A,30.25,10.0,NE,8.1,-,N/A,,Clear,40,2012-10-10 17:55:00
1:15 PM,-9999,-9999,N/A,30.25,10.0,NE,12.7,-,N/A,,Clear,40,2012-10-10 18:15:00
1:55 PM,-9999,-9999,N/A,30.23,10.0,NE,6.9,-,N/A,,Clear,40,2012-10-10 18:55:00
2:15 PM,-9999,-9999,N/A,30.22,10.0,NE,6.9,-,N/A,,Clear,50,2012-10-10 19:15:00
2:35 PM,-9999,-9999,N/A,30.21,10.0,NE,8.1,-,N/A,,Clear,40,2012-10-10 19:35:00
3:15 PM,-9999,-9999,N/A,30.20,10.0,ENE,4.6,-,N/A,,Clear,60,2012-10-10 20:15:00
3:35 PM,-9999,-9999,N/A,30.19,10.0,NE,6.9,-,N/A,,Clear,50,2012-10-10 20:35:00
4:15 PM,-9999,-9999,N/A,30.18,10.0,NE,5.8,-,N/A,,Mostly Cloudy,50,2012-10-10 21:15:00
4:35 PM,-9999,-9999,N/A,30.18,10.0,East,6.9,-,N/A,,Scattered Clouds,100,2012-10-10 21:35:00
4:55 PM,-9999,-9999,N/A,30.17,10.0,East,6.9,-,N/A,,Clear,80,2012-10-10 21:55:00
5:15 PM,-9999,-9999,N/A,30.17,10.0,ESE,6.9,-,N/A,,Clear,120,2012-10-10 22:15:00
5:35 PM,-9999,-9999,N/A,30.17,10.0,ESE,5.8,-,N/A,,Scattered Clouds,120,2012-10-10 22:35:00
5:55 PM,-9999,-9999,N/A,30.16,10.0,ESE,5.8,-,N/A,,Overcast,120,2012-10-10 22:55:00
6:35 PM,-9999,-9999,N/A,30.16,10.0,East,5.8,-,N/A,,Overcast,80,2012-10-10 23:35:00
6:55 PM,-9999,-9999,N/A,30.16,10.0,East,4.6,-,N/A,,Overcast,90,2012-10-10 23:55:00
7:15 PM,-9999,-9999,N/A,30.16,10.0,East,4.6,-,N/A,,Overcast,80,2012-10-11 00:15:00
7:36 PM,-9999,-9999,N/A,30.16,10.0,East,6.9,-,N/A,,Overcast,80,2012-10-11 00:36:00
7:55 PM,-9999,-9999,N/A,30.16,10.0,East,6.9,-,N/A,,Overcast,90,2012-10-11 00:55:00
8:15 PM,-9999,-9999,N/A,30.16,10.0,East,5.8,-,N/A,,Overcast,100,2012-10-11 01:15:00
8:55 PM,-9999,-9999,N/A,30.16,10.0,ESE,9.2,-,N/A,,Overcast,120,2012-10-11 01:55:00
9:15 PM,-9999,-9999,N/A,30.16,10.0,ESE,8.1,-,N/A,,Overcast,120,2012-10-11 02:15:00
9:35 PM,-9999,-9999,N/A,30.16,10.0,ESE,8.1,-,N/A,,Overcast,120,2012-10-11 02:35:00
9:55 PM,-9999,-9999,N/A,30.16,10.0,ESE,8.1,-,N/A,,Overcast,120,2012-10-11 02:55:00
10:15 PM,-9999,-9999,N/A,30.16,10.0,ESE,5.8,-,N/A,,Overcast,120,2012-10-11 03:15:00
10:35 PM,-9999,-9999,N/A,30.16,10.0,SE,6.9,-,N/A,,Overcast,130,2012-10-11 03:35:00
10:56 PM,-9999,-9999,N/A,30.16,10.0,SE,8.1,-,N/A,,Overcast,130,2012-10-11 03:56:00
11:15 PM,-9999,-9999,N/A,30.16,10.0,SE,6.9,-,N/A,,Overcast,130,2012-10-11 04:15:00
11:35 PM,-9999,-9999,N/A,30.16,10.0,SE,6.9,-,N/A,,Overcast,130,2012-10-11 04:35:00